contact:dominique.lefevre@mio.osupytheas.fr, maurice.libes@osupytheas.fr, didier.mallarino@osupytheas.fr
Project:EMSO http://www.emso-fr.org/EMSO-France
Depth: 2436.0 m
Title:EMSO Ligure Ouest : Data MII capteur AQUADOPP
Date,Latitude,Longitude,X_East,Y_North,Z_Up,Amplitude_X,Amplitude_Y,Amplitude_Z,Batterie,SoundSpeed,Heading,Pitch,Roll,Pressure,TIS,Speed,Direction
, degrees North, degrees East, m.s-1, m.s-1,m.s-1, 1, 1, 1, Volt, m.s-1, degree, degree, degree, dbar, degree_C, m.s-1, degree
2023-04-23T00:04:03,42.805,6.029,-0.019,-0.005,-0.03,103.0,103.0,102.0,13.3,1505.2,336.6,-0.8,1.8,2471.393,13.29,0.019,255.3
2023-04-23T00:07:03,42.805,6.029,-0.001,-0.026,-0.051,104.0,102.0,101.0,13.3,1505.2,335.7,-0.8,1.8,2471.418,13.29,0.026,182.2
2023-04-23T00:10:03,42.805,6.029,-0.01,-0.022,-0.025,105.0,102.0,101.0,13.4,1505.2,331.2,-0.8,1.8,2471.399,13.29,0.024,204.4
2023-04-23T00:13:03,42.805,6.029,-0.011,-0.005,0.009,104.0,102.0,103.0,13.4,1505.2,325.0,-0.8,1.8,2471.38,13.29,0.012,245.6
2023-04-23T00:16:03,42.805,6.029,-0.008,0.001,-0.029,105.0,104.0,100.0,13.4,1505.2,337.1,-0.8,1.8,2471.371,13.29,0.008,277.1
2023-04-23T00:19:03,42.805,6.029,0.001,-0.011,-0.021,103.0,102.0,100.0,13.4,1505.2,341.2,-0.8,1.8,2471.394,13.29,0.011,174.8
2023-04-23T00:22:03,42.805,6.029,-0.013,-0.02,-0.039,105.0,103.0,101.0,13.4,1505.2,336.0,-0.8,1.8,2471.355,13.29,0.023,213.0
2023-04-23T00:25:03,42.805,6.029,-0.006,-0.003,-0.025,104.0,103.0,101.0,13.4,1505.2,340.8,-0.7,1.8,2471.401,13.29,0.006,243.4
2023-04-23T00:28:03,42.805,6.029,-0.004,0.0,-0.044,105.0,101.0,102.0,13.3,1505.2,340.4,-0.8,1.8,2471.358,13.29,0.004,270.0
2023-04-23T00:31:03,42.805,6.029,0.017,-0.027,-0.019,103.0,103.0,101.0,13.4,1505.2,329.6,-0.7,1.8,2471.344,13.29,0.031,147.8
2023-04-23T00:34:03,42.805,6.029,-0.011,-0.017,-0.03,103.0,103.0,102.0,13.4,1505.2,316.9,-0.8,1.8,2471.336,13.29,0.02,212.9
2023-04-23T00:37:03,42.805,6.029,-0.012,0.006,-0.05,103.0,103.0,101.0,13.4,1505.2,333.4,-0.8,1.8,2471.358,13.29,0.013,296.6
2023-04-23T00:40:03,42.805,6.029,0.022,-0.004,-0.029,104.0,104.0,101.0,13.4,1505.2,324.8,-0.7,1.8,2471.359,13.29,0.022,100.3
2023-04-23T00:43:03,42.805,6.029,-0.017,-0.017,-0.025,103.0,102.0,102.0,13.3,1505.2,335.4,-0.8,1.8,2471.324,13.29,0.024,225.0
2023-04-23T00:46:03,42.805,6.029,-0.023,0.01,-0.026,103.0,103.0,101.0,13.4,1505.2,329.9,-0.7,1.8,2471.375,13.29,0.025,293.5
2023-04-23T00:49:03,42.805,6.029,-0.027,0.019,-0.041,104.0,102.0,100.0,13.4,1505.2,341.5,-0.8,1.8,2471.35,13.29,0.033,305.1
2023-04-23T00:52:03,42.805,6.029,-0.029,0.01,-0.049,104.0,102.0,101.0,13.4,1505.2,338.6,-0.8,1.8,2471.34,13.29,0.03,289.0
2023-04-23T00:55:03,42.805,6.029,-0.026,-0.024,-0.051,104.0,103.0,103.0,13.4,1505.2,329.5,-0.7,1.8,2471.342,13.29,0.035,227.3
2023-04-23T00:58:03,42.805,6.029,-0.002,0.0,-0.014,104.0,103.0,102.0,13.4,1505.2,326.3,-0.8,1.8,2471.314,13.29,0.002,270.0
2023-04-23T01:04:03,42.805,6.029,0.011,-0.04,-0.003,106.0,105.0,103.0,13.4,1505.2,323.4,-0.8,1.8,2471.362,13.29,0.041,164.6
2023-04-23T01:07:03,42.805,6.029,0.001,-0.028,-0.029,105.0,106.0,102.0,13.4,1505.2,317.4,-0.7,1.8,2471.379,13.29,0.028,178.0
2023-04-23T01:10:03,42.805,6.029,-0.007,-0.028,-0.029,104.0,103.0,102.0,13.3,1505.2,320.9,-0.8,1.8,2471.358,13.29,0.028,194.0
2023-04-23T01:13:03,42.805,6.029,-0.019,0.007,-0.005,105.0,104.0,102.0,13.3,1505.2,338.4,-0.8,1.8,2471.361,13.29,0.02,290.2
2023-04-23T01:16:03,42.805,6.029,0.006,-0.011,0.015,103.0,102.0,103.0,13.3,1505.2,330.6,-0.7,1.8,2471.353,13.29,0.012,151.4
2023-04-23T01:19:03,42.805,6.029,-0.009,0.002,-0.011,104.0,104.0,100.0,13.4,1505.2,343.4,-0.8,1.9,2471.353,13.29,0.009,282.5
2023-04-23T01:22:03,42.805,6.029,-0.013,-0.009,-0.042,104.0,103.0,102.0,13.3,1505.2,323.5,-0.8,1.8,2471.342,13.29,0.015,235.3
2023-04-23T01:25:03,42.805,6.029,-0.014,-0.008,-0.021,103.0,103.0,102.0,13.4,1505.2,321.6,-0.8,1.8,2471.333,13.29,0.016,240.3
2023-04-23T01:28:03,42.805,6.029,0.006,-0.015,-0.039,104.0,104.0,100.0,13.4,1505.2,321.1,-0.7,1.8,2471.334,13.29,0.016,158.2
2023-04-23T01:31:03,42.805,6.029,0.011,-0.017,-0.021,102.0,103.0,101.0,13.3,1505.2,335.3,-0.8,1.8,2471.318,13.29,0.02,147.1
2023-04-23T01:34:03,42.805,6.029,0.017,-0.032,-0.047,104.0,104.0,102.0,13.4,1505.2,321.4,-0.8,1.8,2471.355,13.29,0.036,152.0
2023-04-23T01:37:03,42.805,6.029,-0.022,-0.019,-0.061,103.0,102.0,102.0,13.4,1505.2,340.4,-0.7,1.8,2471.276,13.29,0.029,229.2
2023-04-23T01:40:03,42.805,6.029,-0.022,-0.005,-0.029,104.0,103.0,102.0,13.3,1505.2,333.4,-0.8,1.8,2471.318,13.29,0.022,257.2
2023-04-23T01:43:03,42.805,6.029,-0.018,-0.001,-0.02,105.0,103.0,102.0,13.3,1505.2,323.6,-0.7,1.8,2471.292,13.29,0.018,266.8
2023-04-23T01:46:03,42.805,6.029,0.005,-0.025,-0.01,104.0,104.0,102.0,13.4,1505.2,333.9,-0.8,1.8,2471.343,13.29,0.025,168.7
2023-04-23T01:49:03,42.805,6.029,-0.009,-0.038,-0.023,103.0,104.0,102.0,13.4,1505.2,334.2,-0.8,1.8,2471.328,13.29,0.039,193.3
2023-04-23T01:52:03,42.805,6.029,-0.012,-0.013,-0.005,106.0,105.0,103.0,13.3,1505.2,331.1,-0.7,1.8,2471.342,13.29,0.017,222.7
2023-04-23T01:55:03,42.805,6.029,0.003,-0.014,0.005,106.0,103.0,104.0,13.3,1505.2,318.6,-0.8,1.8,2471.265,13.29,0.014,167.9
2023-04-23T01:58:03,42.805,6.029,-0.026,0.002,-0.01,105.0,104.0,102.0,13.4,1505.2,342.2,-0.7,1.8,2471.31,13.29,0.026,274.4
2023-04-23T02:04:03,42.805,6.029,-0.029,-0.006,-0.01,105.0,103.0,102.0,13.3,1505.2,316.2,-0.7,1.8,2471.324,13.28,0.029,258.3
2023-04-23T02:07:03,42.805,6.029,-0.034,-0.015,-0.02,104.0,102.0,102.0,13.3,1505.2,322.1,-0.8,1.8,2471.33,13.29,0.037,246.2
2023-04-23T02:10:03,42.805,6.029,-0.007,0.001,-0.002,104.0,104.0,102.0,13.4,1505.2,316.8,-0.7,1.8,2471.347,13.29,0.007,278.1
2023-04-23T02:13:03,42.805,6.029,0.001,-0.026,0.002,103.0,104.0,102.0,13.4,1505.2,332.0,-0.8,1.8,2471.321,13.29,0.026,177.8
2023-04-23T02:16:03,42.805,6.029,-0.012,-0.027,-0.056,103.0,104.0,103.0,13.3,1505.2,323.7,-0.8,1.8,2471.338,13.29,0.029,204.0
2023-04-23T02:19:03,42.805,6.029,0.0,-0.025,-0.007,106.0,103.0,101.0,13.3,1505.2,327.3,-0.8,1.8,2471.289,13.29,0.025,180.0
2023-04-23T02:22:03,42.805,6.029,-0.017,-0.02,-0.024,103.0,104.0,102.0,13.3,1505.2,341.2,-0.7,1.8,2471.315,13.29,0.026,220.4
2023-04-23T02:25:03,42.805,6.029,-0.021,0.002,-0.032,106.0,102.0,102.0,13.4,1505.2,339.3,-0.8,1.8,2471.28,13.29,0.021,275.4
2023-04-23T02:28:03,42.805,6.029,-0.002,-0.014,-0.013,104.0,104.0,103.0,13.4,1505.2,343.2,-0.7,1.8,2471.302,13.29,0.014,188.1
2023-04-23T02:31:03,42.805,6.029,-0.014,-0.022,-0.037,104.0,104.0,103.0,13.3,1505.2,329.6,-0.8,1.8,2471.286,13.29,0.026,212.5
2023-04-23T02:34:03,42.805,6.029,-0.003,-0.015,-0.021,104.0,104.0,103.0,13.3,1505.2,316.2,-0.8,1.8,2471.301,13.29,0.015,191.3
2023-04-23T02:37:03,42.805,6.029,-0.032,-0.001,-0.018,105.0,103.0,101.0,13.4,1505.2,326.6,-0.7,1.8,2471.297,13.29,0.032,268.2
2023-04-23T02:40:03,42.805,6.029,-0.026,-0.006,-0.021,104.0,105.0,102.0,13.3,1505.2,342.6,-0.8,1.8,2471.285,13.29,0.026,257.0
2023-04-23T02:43:03,42.805,6.029,-0.03,0.006,-0.037,103.0,104.0,101.0,13.4,1505.2,325.2,-0.7,1.8,2471.286,13.29,0.03,281.3
2023-04-23T02:46:03,42.805,6.029,-0.025,-0.019,-0.038,105.0,103.0,102.0,13.4,1505.2,339.7,-0.8,1.8,2471.274,13.29,0.031,232.8
2023-04-23T02:49:03,42.805,6.029,-0.036,-0.011,0.002,105.0,104.0,102.0,13.4,1505.2,339.9,-0.8,1.8,2471.29,13.29,0.037,253.0
2023-04-23T02:52:03,42.805,6.029,-0.026,-0.022,-0.018,103.0,103.0,102.0,13.4,1505.2,321.1,-0.8,1.8,2471.262,13.29,0.034,229.8
2023-04-23T02:55:03,42.805,6.029,-0.009,-0.017,-0.035,103.0,103.0,102.0,13.3,1505.2,325.5,-0.8,1.8,2471.292,13.29,0.019,207.9
2023-04-23T02:58:03,42.805,6.029,0.0,0.001,-0.018,104.0,103.0,101.0,13.4,1505.2,323.6,-0.7,1.8,2471.292,13.29,0.001,0.0
2023-04-23T03:04:03,42.805,6.029,-0.027,-0.003,-0.014,104.0,103.0,103.0,13.4,1505.2,327.9,-0.7,1.8,2471.364,13.28,0.027,263.7
2023-04-23T03:07:03,42.805,6.029,0.001,-0.015,-0.014,104.0,104.0,102.0,13.3,1505.2,336.5,-0.7,1.8,2471.319,13.29,0.015,176.2
2023-04-23T03:10:03,42.805,6.029,-0.02,-0.037,-0.043,105.0,102.0,102.0,13.3,1505.2,340.8,-0.8,1.8,2471.342,13.29,0.042,208.4
2023-04-23T03:13:03,42.805,6.029,-0.02,0.017,0.004,104.0,103.0,103.0,13.4,1505.2,341.5,-0.7,1.9,2471.307,13.29,0.026,310.4
2023-04-23T03:16:03,42.805,6.029,-0.012,-0.008,-0.017,104.0,104.0,102.0,13.4,1505.2,318.7,-0.7,1.9,2471.304,13.29,0.014,236.3
2023-04-23T03:19:03,42.805,6.029,-0.002,-0.013,-0.042,104.0,103.0,101.0,13.4,1505.2,321.9,-0.8,1.8,2471.314,13.29,0.013,188.7
2023-04-23T03:22:03,42.805,6.029,-0.03,-0.008,-0.018,104.0,106.0,103.0,13.4,1505.2,328.4,-0.7,1.8,2471.3,13.29,0.031,255.1
2023-04-23T03:25:03,42.805,6.029,-0.026,-0.01,-0.038,105.0,103.0,104.0,13.3,1505.2,326.8,-0.8,1.9,2471.287,13.29,0.027,249.0
2023-04-23T03:28:03,42.805,6.029,-0.015,-0.019,-0.043,105.0,104.0,104.0,13.4,1505.2,333.9,-0.8,1.8,2471.273,13.29,0.024,218.3
2023-04-23T03:31:03,42.805,6.029,0.002,-0.015,-0.013,104.0,104.0,103.0,13.4,1505.2,327.3,-0.7,1.8,2471.294,13.29,0.015,172.4
2023-04-23T03:34:03,42.805,6.029,-0.018,0.003,-0.015,105.0,104.0,103.0,13.4,1505.2,331.8,-0.7,1.8,2471.264,13.29,0.018,279.5
2023-04-23T03:37:03,42.805,6.029,-0.019,-0.033,-0.04,105.0,105.0,102.0,13.3,1505.2,317.7,-0.8,1.8,2471.271,13.29,0.038,209.9
2023-04-23T03:40:03,42.805,6.029,-0.027,0.0,-0.008,105.0,103.0,102.0,13.4,1505.2,342.2,-0.8,1.8,2471.3,13.29,0.026,270.0
2023-04-23T03:43:03,42.805,6.029,-0.038,-0.009,-0.017,106.0,106.0,103.0,13.3,1505.2,321.1,-0.8,1.8,2471.316,13.29,0.039,256.7
2023-04-23T03:46:03,42.805,6.029,-0.022,-0.025,-0.046,105.0,105.0,102.0,13.4,1505.2,322.2,-0.8,1.8,2471.302,13.29,0.033,221.3
2023-04-23T03:49:03,42.805,6.029,-0.042,0.009,-0.011,105.0,104.0,102.0,13.4,1505.2,324.7,-0.7,1.8,2471.264,13.29,0.042,282.1
2023-04-23T03:52:03,42.805,6.029,-0.038,-0.025,-0.014,105.0,105.0,102.0,13.3,1505.2,322.2,-0.7,1.8,2471.249,13.29,0.045,236.7
2023-04-23T03:55:03,42.805,6.029,-0.03,-0.013,-0.005,107.0,105.0,102.0,13.3,1505.2,321.6,-0.8,1.8,2471.262,13.29,0.032,246.6
2023-04-23T03:58:03,42.805,6.029,-0.023,-0.002,-0.011,105.0,105.0,103.0,13.3,1505.2,328.8,-0.8,1.8,2471.272,13.29,0.023,265.0
2023-04-23T04:04:03,42.805,6.029,-0.036,0.006,-0.012,104.0,103.0,104.0,13.3,1505.2,334.4,-0.8,1.8,2471.303,13.28,0.036,279.5
2023-04-23T04:07:03,42.805,6.029,-0.022,-0.006,-0.027,105.0,105.0,103.0,13.4,1505.2,334.9,-0.7,1.8,2471.315,13.28,0.022,254.7
2023-04-23T04:10:03,42.805,6.029,-0.013,-0.022,-0.019,106.0,103.0,103.0,13.4,1505.2,324.5,-0.8,1.8,2471.289,13.29,0.025,210.6
2023-04-23T04:13:03,42.805,6.029,-0.025,-0.021,-0.044,105.0,104.0,103.0,13.4,1505.2,338.3,-0.8,1.8,2471.286,13.29,0.032,230.0
2023-04-23T04:16:03,42.805,6.029,-0.042,0.001,-0.024,106.0,105.0,104.0,13.4,1505.2,330.3,-0.8,1.9,2471.291,13.29,0.042,271.4
2023-04-23T04:19:03,42.805,6.029,-0.024,-0.02,-0.032,107.0,104.0,102.0,13.3,1505.2,322.4,-0.7,1.8,2471.282,13.29,0.031,230.2
2023-04-23T04:22:03,42.805,6.029,-0.025,0.001,-0.018,104.0,105.0,103.0,13.4,1505.2,338.5,-0.8,1.8,2471.261,13.29,0.025,272.3
2023-04-23T04:25:03,42.805,6.029,-0.035,-0.008,-0.032,104.0,105.0,103.0,13.4,1505.2,338.3,-0.8,1.8,2471.27,13.29,0.035,257.1
2023-04-23T04:28:03,42.805,6.029,0.017,-0.013,0.006,106.0,105.0,102.0,13.3,1505.2,325.4,-0.8,1.8,2471.314,13.29,0.021,127.4
2023-04-23T04:31:03,42.805,6.029,-0.031,0.003,-0.012,105.0,104.0,103.0,13.4,1505.2,329.0,-0.8,1.8,2471.276,13.29,0.031,275.5
2023-04-23T04:34:03,42.805,6.029,-0.025,-0.016,-0.024,106.0,105.0,102.0,13.3,1505.2,317.3,-0.8,1.8,2471.291,13.29,0.029,237.4
2023-04-23T04:37:03,42.805,6.029,-0.027,-0.003,-0.044,105.0,106.0,102.0,13.4,1505.2,332.2,-0.8,1.8,2471.277,13.29,0.027,263.7
2023-04-23T04:40:03,42.805,6.029,-0.015,-0.017,-0.057,105.0,107.0,102.0,13.4,1505.2,327.9,-0.8,1.8,2471.279,13.29,0.022,221.4
2023-04-23T04:43:03,42.805,6.029,-0.049,0.007,-0.018,106.0,104.0,102.0,13.4,1505.2,339.7,-0.8,1.8,2471.292,13.29,0.049,278.1
2023-04-23T04:46:03,42.805,6.029,-0.031,-0.006,-0.015,107.0,104.0,102.0,13.3,1505.2,324.5,-0.7,1.8,2471.273,13.29,0.031,259.0
2023-04-23T04:49:03,42.805,6.029,-0.059,0.004,-0.032,106.0,104.0,102.0,13.3,1505.2,330.9,-0.8,1.8,2471.27,13.29,0.059,273.9
2023-04-23T04:52:03,42.805,6.029,-0.033,0.003,-0.015,107.0,104.0,103.0,13.4,1505.2,336.8,-0.8,1.8,2471.284,13.29,0.033,275.2
2023-04-23T04:55:03,42.805,6.029,-0.056,-0.007,-0.024,105.0,104.0,103.0,13.4,1505.2,317.0,-0.8,1.8,2471.295,13.29,0.056,262.9
2023-04-23T04:58:03,42.805,6.029,-0.034,0.004,-0.014,106.0,104.0,103.0,13.3,1505.2,336.2,-0.8,1.8,2471.301,13.29,0.034,276.7
2023-04-23T05:04:03,42.805,6.029,-0.032,0.007,-0.022,104.0,105.0,103.0,13.3,1505.2,322.7,-0.7,1.8,2471.321,13.28,0.032,282.3
2023-04-23T05:07:03,42.805,6.029,-0.056,0.011,-0.006,105.0,103.0,104.0,13.4,1505.2,328.5,-0.8,1.8,2471.369,13.28,0.057,281.1
2023-04-23T05:10:03,42.805,6.029,-0.057,0.002,-0.01,105.0,106.0,103.0,13.4,1505.2,323.8,-0.8,1.8,2471.316,13.29,0.057,272.0
2023-04-23T05:13:03,42.805,6.029,-0.016,-0.011,-0.017,105.0,103.0,104.0,13.3,1505.2,340.1,-0.8,1.8,2471.342,13.29,0.019,235.5
2023-04-23T05:16:03,42.805,6.029,-0.03,0.006,-0.011,105.0,105.0,103.0,13.4,1505.2,325.1,-0.8,1.8,2471.308,13.29,0.03,281.3
2023-04-23T05:19:03,42.805,6.029,-0.014,0.017,-0.066,106.0,104.0,103.0,13.3,1505.2,344.9,-0.8,1.8,2471.297,13.29,0.022,320.5
2023-04-23T05:22:03,42.805,6.029,-0.035,-0.012,-0.062,105.0,104.0,102.0,13.3,1505.2,325.1,-0.8,1.8,2471.307,13.29,0.037,251.1
2023-04-23T05:25:03,42.805,6.029,-0.015,0.0,-0.024,105.0,104.0,102.0,13.4,1505.2,321.0,-0.7,1.8,2471.316,13.29,0.015,270.0
2023-04-23T05:28:03,42.805,6.029,-0.029,0.013,0.006,103.0,106.0,102.0,13.4,1505.2,326.9,-0.8,1.8,2471.305,13.29,0.031,294.1
2023-04-23T05:31:03,42.805,6.029,-0.022,0.01,-0.016,105.0,104.0,103.0,13.4,1505.2,318.7,-0.8,1.8,2471.278,13.29,0.024,294.4
2023-04-23T05:34:03,42.805,6.029,-0.03,0.008,-0.035,105.0,103.0,103.0,13.4,1505.2,317.7,-0.8,1.7,2471.276,13.29,0.031,284.9
2023-04-23T05:37:03,42.805,6.029,-0.028,-0.01,-0.015,105.0,104.0,103.0,13.4,1505.2,329.4,-0.8,1.8,2471.286,13.29,0.029,250.4
2023-04-23T05:40:03,42.805,6.029,-0.02,0.005,-0.003,105.0,104.0,103.0,13.4,1505.2,324.7,-0.8,1.8,2471.279,13.29,0.02,284.0
2023-04-23T05:43:03,42.805,6.029,-0.054,0.014,-0.032,105.0,104.0,102.0,13.3,1505.2,330.8,-0.8,1.9,2471.297,13.29,0.055,284.5
2023-04-23T05:46:03,42.805,6.029,-0.029,-0.002,-0.043,104.0,106.0,104.0,13.4,1505.2,329.9,-0.8,1.8,2471.315,13.29,0.029,266.1
2023-04-23T05:49:03,42.805,6.029,-0.025,0.017,0.035,105.0,106.0,103.0,13.4,1505.2,338.0,-0.7,1.8,2471.292,13.29,0.03,304.2
2023-04-23T05:52:03,42.805,6.029,-0.031,0.0,-0.006,104.0,104.0,105.0,13.3,1505.2,341.2,-0.8,1.8,2471.287,13.29,0.03,270.0
2023-04-23T05:55:03,42.805,6.029,-0.017,-0.002,-0.01,105.0,105.0,102.0,13.3,1505.2,331.4,-0.7,1.8,2471.324,13.29,0.017,263.3
2023-04-23T05:58:03,42.805,6.029,-0.004,0.001,-0.024,104.0,105.0,102.0,13.4,1505.2,334.7,-0.8,1.8,2471.311,13.29,0.004,284.0
2023-04-23T06:04:03,42.805,6.029,-0.029,-0.009,-0.037,105.0,103.0,102.0,13.4,1505.2,340.2,-0.8,1.9,2471.385,13.28,0.03,252.8
2023-04-23T06:07:03,42.805,6.029,-0.012,-0.018,-0.001,105.0,105.0,104.0,13.4,1505.2,315.6,-0.8,1.8,2471.378,13.28,0.021,213.7
2023-04-23T06:10:03,42.805,6.029,-0.012,-0.006,-0.004,104.0,103.0,103.0,13.4,1505.2,322.2,-0.7,1.8,2471.338,13.29,0.013,243.4
2023-04-23T06:13:03,42.805,6.029,-0.013,0.0,-0.046,103.0,103.0,104.0,13.4,1505.2,331.8,-0.8,1.8,2471.352,13.29,0.013,270.0
2023-04-23T06:16:03,42.805,6.029,-0.028,0.004,-0.026,105.0,106.0,102.0,13.3,1505.2,317.4,-0.7,1.8,2471.352,13.29,0.028,278.1
2023-04-23T06:19:03,42.805,6.029,-0.015,0.0,-0.006,105.0,105.0,104.0,13.3,1505.2,318.8,-0.8,1.8,2471.338,13.29,0.015,270.0
2023-04-23T06:22:03,42.805,6.029,-0.042,-0.009,-0.011,104.0,104.0,103.0,13.4,1505.2,320.3,-0.8,1.8,2471.342,13.29,0.042,257.9
2023-04-23T06:25:03,42.805,6.029,-0.016,0.0,-0.034,104.0,105.0,103.0,13.3,1505.2,317.9,-0.8,1.8,2471.344,13.29,0.016,270.0
2023-04-23T06:28:03,42.805,6.029,-0.012,-0.012,-0.049,105.0,105.0,103.0,13.4,1505.2,325.7,-0.7,1.8,2471.344,13.29,0.016,225.0
2023-04-23T06:31:03,42.805,6.029,-0.038,-0.01,0.0,106.0,104.0,103.0,13.4,1505.2,320.1,-0.8,1.8,2471.325,13.29,0.039,255.3
2023-04-23T06:34:03,42.805,6.029,-0.031,-0.01,-0.037,105.0,104.0,102.0,13.3,1505.2,334.4,-0.8,1.8,2471.375,13.29,0.032,252.1
2023-04-23T06:37:03,42.805,6.029,-0.006,-0.008,-0.019,105.0,104.0,102.0,13.4,1505.2,318.4,-0.8,1.8,2471.363,13.29,0.01,216.9
2023-04-23T06:40:03,42.805,6.029,-0.026,-0.013,-0.037,105.0,104.0,102.0,13.3,1505.2,322.4,-0.8,1.8,2471.339,13.29,0.029,243.4
2023-04-23T06:43:03,42.805,6.029,-0.033,-0.016,-0.013,104.0,104.0,103.0,13.3,1505.2,316.3,-0.8,1.9,2471.352,13.29,0.036,244.1
2023-04-23T06:46:03,42.805,6.029,-0.018,0.0,-0.012,105.0,105.0,102.0,13.4,1505.2,327.5,-0.8,1.8,2471.335,13.29,0.018,270.0
2023-04-23T06:49:03,42.805,6.029,-0.043,0.014,-0.028,104.0,103.0,102.0,13.4,1505.2,327.7,-0.8,1.8,2471.359,13.29,0.045,288.0
2023-04-23T06:52:03,42.805,6.029,-0.026,0.026,-0.051,106.0,105.0,102.0,13.4,1505.2,336.0,-0.8,1.8,2471.352,13.29,0.036,315.0
2023-04-23T06:55:03,42.805,6.029,-0.027,-0.002,-0.052,106.0,104.0,104.0,13.4,1505.2,326.8,-0.7,1.8,2471.381,13.29,0.027,265.8
2023-04-23T06:58:03,42.805,6.029,-0.042,0.004,-0.012,105.0,106.0,103.0,13.4,1505.2,340.1,-0.7,1.8,2471.369,13.29,0.042,275.4
2023-04-23T07:04:03,42.805,6.029,-0.028,-0.008,-0.01,106.0,103.0,102.0,13.3,1505.2,338.0,-0.8,1.8,2471.424,13.28,0.029,254.1
2023-04-23T07:07:03,42.805,6.029,-0.069,0.0,-0.017,105.0,105.0,102.0,13.3,1505.2,323.4,-0.8,1.8,2471.442,13.28,0.068,270.0
2023-04-23T07:10:03,42.805,6.029,-0.073,-0.015,-0.041,105.0,104.0,103.0,13.4,1505.2,320.9,-0.8,1.8,2471.425,13.29,0.074,258.4
2023-04-23T07:13:03,42.805,6.029,-0.038,0.024,-0.014,104.0,104.0,102.0,13.4,1505.2,333.4,-0.7,1.8,2471.406,13.29,0.044,302.3
2023-04-23T07:16:03,42.805,6.029,-0.056,0.005,-0.032,105.0,103.0,103.0,13.4,1505.2,328.4,-0.8,1.8,2471.403,13.29,0.056,275.1
2023-04-23T07:19:03,42.805,6.029,-0.042,0.013,-0.038,104.0,104.0,102.0,13.4,1505.2,325.0,-0.7,1.8,2471.372,13.29,0.043,287.2
2023-04-23T07:22:03,42.805,6.029,-0.049,0.023,-0.02,105.0,103.0,102.0,13.4,1505.2,334.4,-0.7,1.8,2471.392,13.29,0.054,295.1
2023-04-23T07:25:03,42.805,6.029,-0.048,0.006,-0.028,105.0,105.0,102.0,13.3,1505.2,325.2,-0.8,1.8,2471.382,13.29,0.048,277.1
2023-04-23T07:28:03,42.805,6.029,-0.056,0.003,-0.049,105.0,103.0,102.0,13.4,1505.2,323.7,-0.8,1.8,2471.385,13.29,0.056,273.1
2023-04-23T07:31:03,42.805,6.029,-0.058,0.021,-0.031,105.0,105.0,103.0,13.3,1505.2,329.2,-0.8,1.8,2471.389,13.29,0.061,289.9
2023-04-23T07:34:03,42.805,6.029,-0.026,0.002,-0.021,104.0,106.0,102.0,13.4,1505.2,324.4,-0.8,1.8,2471.377,13.29,0.026,274.4
2023-04-23T07:37:03,42.805,6.029,-0.032,-0.01,-0.049,104.0,106.0,103.0,13.4,1505.2,326.9,-0.8,1.8,2471.367,13.29,0.033,252.6
2023-04-23T07:40:03,42.805,6.029,-0.035,0.003,-0.014,103.0,103.0,103.0,13.3,1505.2,339.6,-0.8,1.8,2471.408,13.29,0.035,274.9
2023-04-23T07:43:03,42.805,6.029,-0.037,0.014,0.0,105.0,104.0,104.0,13.3,1505.2,331.4,-0.8,1.8,2471.424,13.29,0.039,290.7
2023-04-23T07:46:03,42.805,6.029,-0.05,0.037,-0.033,106.0,104.0,102.0,13.3,1505.2,336.1,-0.8,1.8,2471.398,13.29,0.062,306.5
2023-04-23T07:49:03,42.805,6.029,-0.042,0.028,-0.026,104.0,104.0,101.0,13.4,1505.2,343.7,-0.8,1.8,2471.411,13.29,0.05,303.7
2023-04-23T07:52:03,42.805,6.029,-0.053,-0.009,-0.001,103.0,103.0,102.0,13.4,1505.2,324.2,-0.7,1.8,2471.42,13.29,0.053,260.4
2023-04-23T07:55:03,42.805,6.029,-0.053,-0.007,-0.027,104.0,104.0,103.0,13.4,1505.2,316.2,-0.8,1.8,2471.386,13.29,0.053,262.5
2023-04-23T07:58:03,42.805,6.029,-0.05,0.005,-0.033,105.0,105.0,103.0,13.3,1505.2,342.6,-0.8,1.8,2471.431,13.29,0.05,275.7
2023-04-23T08:04:03,42.805,6.029,-0.039,0.011,-0.047,104.0,103.0,102.0,13.3,1505.2,341.2,-0.8,1.8,2471.477,13.28,0.04,285.7
2023-04-23T08:07:03,42.805,6.029,-0.026,-0.003,-0.026,104.0,104.0,100.0,13.4,1505.2,319.8,-0.8,1.8,2471.477,13.28,0.026,263.4
2023-04-23T08:10:03,42.805,6.029,-0.031,0.009,-0.01,104.0,104.0,101.0,13.4,1505.2,336.8,-0.8,1.8,2471.459,13.29,0.032,286.2
2023-04-23T08:13:03,42.805,6.029,-0.033,0.011,-0.032,105.0,105.0,102.0,13.4,1505.2,322.2,-0.8,1.8,2471.471,13.29,0.034,288.4
2023-04-23T08:16:03,42.805,6.029,-0.048,0.022,-0.02,103.0,103.0,102.0,13.4,1505.2,326.0,-0.8,1.8,2471.465,13.29,0.052,294.6
2023-04-23T08:19:03,42.805,6.029,-0.055,0.024,-0.028,104.0,103.0,102.0,13.4,1505.2,335.3,-0.8,1.8,2471.416,13.29,0.06,293.6
2023-04-23T08:22:03,42.805,6.029,-0.058,0.024,-0.036,105.0,104.0,102.0,13.3,1505.2,333.4,-0.8,1.9,2471.403,13.29,0.062,292.5
2023-04-23T08:25:03,42.805,6.029,-0.048,0.012,-0.035,104.0,102.0,102.0,13.4,1505.2,338.8,-0.8,1.8,2471.42,13.29,0.049,284.0
2023-04-23T08:28:03,42.805,6.029,-0.03,0.022,-0.037,104.0,103.0,102.0,13.4,1505.2,340.3,-0.7,1.9,2471.397,13.29,0.037,306.3
2023-04-23T08:31:03,42.805,6.029,-0.052,0.031,-0.023,104.0,102.0,101.0,13.4,1505.2,338.9,-0.8,1.8,2471.426,13.29,0.06,300.8
2023-04-23T08:34:03,42.805,6.029,-0.041,0.01,-0.059,104.0,103.0,101.0,13.3,1505.2,328.8,-0.8,1.8,2471.366,13.29,0.042,283.7
2023-04-23T08:37:03,42.805,6.029,-0.024,0.014,-0.028,102.0,103.0,102.0,13.3,1505.2,334.3,-0.7,1.8,2471.438,13.29,0.027,300.3
2023-04-23T08:40:03,42.805,6.029,-0.058,-0.011,-0.051,103.0,104.0,102.0,13.4,1505.2,324.2,-0.8,1.8,2471.39,13.29,0.059,259.3
2023-04-23T08:43:03,42.805,6.029,-0.046,0.027,0.012,102.0,103.0,101.0,13.4,1505.2,325.0,-0.8,1.8,2471.444,13.29,0.053,300.4
2023-04-23T08:46:03,42.805,6.029,-0.041,0.009,-0.035,104.0,103.0,101.0,13.3,1505.2,326.5,-0.8,1.8,2471.439,13.29,0.041,282.4
2023-04-23T08:49:03,42.805,6.029,-0.065,0.022,-0.003,103.0,102.0,102.0,13.3,1505.2,330.5,-0.8,1.8,2471.411,13.29,0.068,288.7
2023-04-23T08:52:03,42.805,6.029,-0.054,0.026,-0.009,103.0,102.0,101.0,13.4,1505.2,332.5,-0.7,1.8,2471.435,13.29,0.059,295.7
2023-04-23T08:55:03,42.805,6.029,-0.049,0.01,0.013,103.0,103.0,101.0,13.4,1505.2,320.4,-0.8,1.8,2471.431,13.29,0.05,281.5
2023-04-23T08:58:03,42.805,6.029,-0.055,0.022,-0.032,103.0,102.0,103.0,13.4,1505.2,327.0,-0.8,1.8,2471.386,13.29,0.059,291.8
2023-04-23T09:04:03,42.805,6.029,-0.064,0.014,-0.025,104.0,102.0,102.0,13.4,1505.2,329.0,-0.8,1.8,2471.457,13.28,0.065,282.3
2023-04-23T09:07:03,42.805,6.029,-0.045,0.03,-0.01,103.0,103.0,102.0,13.4,1505.2,333.4,-0.7,1.8,2471.449,13.28,0.054,303.7
2023-04-23T09:10:03,42.805,6.029,-0.044,-0.006,-0.042,104.0,103.0,101.0,13.4,1505.2,321.0,-0.7,1.8,2471.454,13.29,0.044,262.2
2023-04-23T09:13:03,42.805,6.029,-0.029,0.012,-0.019,104.0,103.0,101.0,13.3,1505.2,329.4,-0.8,1.8,2471.458,13.29,0.031,292.5
2023-04-23T09:16:03,42.805,6.029,-0.031,0.029,-0.022,103.0,103.0,103.0,13.4,1505.2,331.6,-0.8,1.8,2471.437,13.29,0.042,313.1
2023-04-23T09:19:03,42.805,6.029,-0.027,0.03,-0.032,104.0,102.0,101.0,13.4,1505.2,334.4,-0.8,1.8,2471.469,13.29,0.04,318.0
2023-04-23T09:22:03,42.805,6.029,-0.057,0.014,-0.021,103.0,104.0,102.0,13.3,1505.2,320.4,-0.8,1.8,2471.412,13.29,0.058,283.8
2023-04-23T09:25:03,42.805,6.029,-0.044,-0.007,-0.023,104.0,102.0,102.0,13.4,1505.2,322.5,-0.7,1.8,2471.401,13.29,0.044,261.0
2023-04-23T09:28:03,42.805,6.029,-0.031,0.011,-0.029,104.0,102.0,101.0,13.4,1505.2,322.9,-0.8,1.8,2471.448,13.29,0.032,289.5
2023-04-23T09:31:03,42.805,6.029,-0.039,0.012,-0.001,104.0,103.0,100.0,13.4,1505.2,333.9,-0.8,1.8,2471.421,13.29,0.04,287.1
2023-04-23T09:34:03,42.805,6.029,-0.047,0.025,-0.021,104.0,103.0,102.0,13.3,1505.2,328.7,-0.8,1.8,2471.448,13.29,0.053,298.0
2023-04-23T09:37:03,42.805,6.029,-0.027,0.012,-0.01,104.0,103.0,103.0,13.4,1505.2,322.3,-0.8,1.9,2471.441,13.29,0.029,294.0
2023-04-23T09:40:03,42.805,6.029,-0.06,0.011,-0.027,104.0,102.0,103.0,13.4,1505.2,315.0,-0.7,1.8,2471.405,13.29,0.06,280.4
2023-04-23T09:43:03,42.805,6.029,-0.029,0.016,-0.055,104.0,102.0,102.0,13.3,1505.2,320.3,-0.8,1.8,2471.417,13.29,0.033,298.9
2023-04-23T09:46:03,42.805,6.029,-0.054,0.007,-0.042,105.0,104.0,100.0,13.4,1505.2,315.6,-0.8,1.8,2471.44,13.29,0.054,277.4
2023-04-23T09:49:03,42.805,6.029,-0.039,0.0,-0.066,102.0,102.0,102.0,13.4,1505.2,317.4,-0.7,1.8,2471.41,13.29,0.039,270.0
2023-04-23T09:52:03,42.805,6.029,-0.057,0.008,-0.026,104.0,102.0,100.0,13.4,1505.2,321.3,-0.7,1.8,2471.416,13.29,0.057,278.0